Regional Weather Roundup
Issued by NWS Mt. Holly, NJ

Home | Current Version | Previous Version | Text Only | Print | Product List | Glossary On
Versions: 1 2 3 4 5 6 7 8 9 10 11 12 13 14 15 16 17 18 19 20 21 22 23 24 25 26 27 28 29 30 31 32 33 34 35 36 37 38 39 40 41 42 43 44 45 46 47 48 49 50
000
ASUS41 KPHI 302311
RWRPHI

REGIONAL WEATHER ROUNDUP
NATIONAL WEATHER SERVICE MOUNT HOLLY NJ
700 PM EDT SUN AUG 30 2015

NOTE:  "FAIR" INDICATES FEW OR NO CLOUDS BELOW 12,000 FEET WITH NO
SIGNIFICANT WEATHER AND/OR OBSTRUCTIONS TO VISIBILITY.

 * = STATION DOES NOT REPORT PRECIPITATION (E.G. RAIN, SNOW, ETC.)
        OR FOG.

NJZ015>026-310000-
SOUTHERN NEW JERSEY

CITY           SKY/WX    TMP DP  RH WIND       PRES   REMARKS
POMONA         MOCLDY    80  65  59 S10       30.06S
WILDWOOD*      MOCLDY    79  66  65 S10       30.08S
MILLVILLE      MOCLDY    79  69  71 S3        30.06S
WRIGHTSTOWN    PTCLDY    83  66  57 SW8       30.00S
MOUNT HOLLY    PTCLDY    83  66  56 VRB3      30.03R
TRENTON        PTCLDY    85  65  51 SW8       30.02R

$$
NJZ001>014-310000-
NORTHERN NEW JERSEY

CITY           SKY/WX    TMP DP  RH WIND       PRES   REMARKS
SUSSEX         CLOUDY    76  73  91 CALM      30.02S FOG
ANDOVER*         N/A     77  71  82 CALM      30.03S
MORRISTOWN     MOCLDY    86  64  48 W6        30.01S
NEWARK         MOCLDY    88  61  40 W10       30.00S
TETERBORO      MOCLDY    85  65  51 S3        29.99S
CALDWELL       MOCLDY    85  63  47 SW3       30.00F
SOMERVILLE     MOCLDY    86  64  47 CALM      29.99S
ALLAIRE*       PTCLDY    84  63  48 SW7       30.03R
TOMS RIVER*    CLEAR     82  64  54 SW9       30.04R

$$
PAZ043-044-047-054-055-060>062-066>071-310000-
EASTERN PENNSYLVANIA

CITY           SKY/WX    TMP DP  RH WIND       PRES   REMARKS
PHILADELPHIA   NOT AVBL
NORTH PHILA    PTCLDY    87  62  43 SW14      30.04R
BLUE BELL      PTCLDY    82  68  61 SW6       30.03S
DOYLESTOWN     PTCLDY    82  63  52 SW7       30.02S
QUAKERTOWN*    MOCLDY    84  64  51 SW3       30.04S
POTTSTOWN      LGT RAIN  76  72  87 S5        30.05S
LANCASTER      PTCLDY    81  69  67 S9        30.04R
COATESVILLE    PTCLDY    79  68  69 CALM      30.07S
READING        MOCLDY    83  67  58 W5        30.03R
ALLENTOWN      MOCLDY    82  63  52 W7        30.03S
MOUNT POCONO   MOCLDY    73  65  75 W5        30.09F
HAZLETON       CLOUDY    77  64  65 SW5       30.11S
WILKES BARRE   PTCLDY    82  63  52 SW8       30.04S

$$
DEZALL-MDZ008-012-015-019-020-310000-
DELAWARE AND EASTERN MARYLAND

CITY           SKY/WX    TMP DP  RH WIND       PRES   REMARKS
WILMINGTON     PTCLDY    82  65  56 SW13      30.05S
DOVER          MOCLDY    82  67  60 SW8       30.05S
GEORGETOWN     CLOUDY    81  62  52 SW7       30.08S
EASTON         CLOUDY    82  66  57 SW7       30.11S
PATUXENT       CLOUDY    80  67  64 S6        30.07F
OCEAN CITY     CLOUDY    79  67  66 SW9       30.09S
WALLOPS ISLAND CLOUDY    78  68  71 S10       30.11S
CAMBRIDGE      CLOUDY    81  63  54 S5        30.08S
SALISBURY      CLOUDY    77  68  73 SW5       30.08S

$$
PAZ001-021-NYZ056-072-MDZ011-DCZ001-310000-
OTHER NEARBY LOCATIONS

CITY           SKY/WX    TMP DP  RH WIND       PRES   REMARKS
HARRISBURG     MOCLDY    83  71  67 S3        30.02R
STATE COLLEGE  CLEAR     79  66  65 W5        30.07R
WILLIAMSPORT   CLOUDY    79  70  74 CALM      30.01S
BINGHAMTON     CLOUDY    76  62  62 MISG      30.06S
NEW YORK CITY  MOCLDY    84  66  54 VRB3      30.03F
BALTIMORE      CLOUDY    81  68  64 S5        30.05S
WASHINGTON DC  CLOUDY    83  67  58 S8        30.07S

$$


USA.gov is the U.S. government's official web portal to all federal, state and local government web resources and services.